Dewpoint
62 61 60 59 59 58 57 56 55 55 54 52 51 51 50 52 53 55 55 55 54 53 53 54 53 53 52 53 52 53 52 52 52 52 53 52 52 53 52 53 54 53
63 62 60 60 59 58 58 57 55 53 54 54 53 52 53 53 53 53 54 55 54 53 52 52 52 51 52 52 52 52 51 52 52 51 52 52 51 51 51 52 54 53
62 62 62 61 59 60 59 59 58 56 55 54 55 55 53 53 53 52 54 54 53 52 52 53 52 51 51 51 51 52 52 52 52 52 52 50 51 52 51 51 51 53
62 62 60 59 60 59 60 59 58 57 55 54 54 55 53 52 53 52 52 53 52 52 53 53 52 52 51 51 52 51 51 51 52 53 53 52 52 52 52 51 51 52
62 62 61 60 60 60 61 59 57 56 55 55 55 55 54 53 52 48 51 52 53 53 53 52 53 53 52 52 52 52 52 51 51 52 52 52 53 53 52 52 51 50
62 60 60 59 60 61 60 59 58 56 55 55 55 54 53 52 50 49 49 50 50 50 51 52 51 52 52 52 52 52 52 51 51 51 50 50 51 52 51 51 50 50
62 62 62 60 61 61 61 60 60 57 55 55 54 54 53 51 50 47 46 48 49 49 49 49 49 50 51 52 52 52 52 52 51 51 49 49 50 51 52 51 50 49
63 63 62 61 62 61 61 60 60 57 56 54 54 54 53 51 48 47 47 47 47 47 48 47 48 47 49 51 50 51 52 52 51 51 50 50 50 50 50 51 50 48
63 63 62 63 62 62 62 60 59 59 56 55 53 53 53 52 49 49 46 45 45 46 46 47 47 47 50 50 50 50 49 51 52 51 50 50 50 50 49 50 49 49
63 63 63 63 62 62 62 61 60 58 55 54 53 53 51 53 51 48 47 47 45 43 44 45 46 48 48 49 48 49 49 49 49 50 50 50 50 49 49 50 48 49
63 62 63 62 62 61 62 62 61 58 55 53 53 53 52 52 51 50 49 47 48 45 44 43 44 46 46 48 49 50 49 49 49 49 50 50 49 49 50 50 48 49
62 62 62 62 62 62 62 61 59 57 55 54 52 52 52 52 51 50 49 47 45 42 42 43 44 46 46 46 47 49 50 50 50 50 49 48 48 49 50 50 49 48
61 61 61 61 61 60 60 58 56 55 54 52 53 53 52 51 51 47 49 48 46 46 44 44 45 46 47 47 47 47 47 47 49 50 49 49 49 49 49 50 49 48
59 60 61 60 59 58 57 56 54 54 54 53 53 53 53 51 49 49 49 48 49 47 47 46 46 46 46 46 46 46 46 48 49 49 49 49 51 50 50 50 49 48
58 59 59 59 58 56 55 55 54 54 54 53 53 53 54 52 51 49 48 48 47 48 46 46 48 48 48 47 46 46 47 48 49 48 49 51 51 49 49 49 49 49
54 58 56 56 55 55 53 54 54 54 55 54 52 52 52 52 50 50 48 48 47 47 48 49 49 49 48 53 53 48 47 47 49 49 49 49 49 49 50 50 50 50
52 52 53 52 53 53 54 53 52 53 54 53 53 52 52 51 51 49 50 49 48 47 48 49 48 47 50 46 46 47 52 49 48 48 48 48 49 49 49 50 49 48
51 51 50 51 52 50 51 51 52 52 52 52 53 53 53 52 52 50 49 50 50 49 50 50 48 50 44 45 44 43 47 51 48 48 48 47 47 47 47 48 49 49
49 49 49 50 50 49 51 52 51 51 51 51 51 52 52 52 51 51 51 50 51 49 49 49 49 46 43 44 43 42 42 49 46 46 45 46 46 46 46 48 49 49
48 48 48 48 49 50 51 50 50 50 51 51 51 52 52 51 51 51 51 50 50 50 50 49 49 49 44 44 43 42 41 43 47 44 45 45 45 45 47 49 49 50
48 48 49 49 48 49 51 49 50 51 51 52 51 51 51 50 50 51 51 51 50 50 51 51 50 46 44 44 43 42 41 41 50 45 44 45 45 47 48 50 49 49
48 49 50 49 49 49 50 49 50 51 51 52 51 51 51 50 50 50 50 50 51 51 51 50 51 44 43 43 42 41 40 50 46 44 43 44 45 46 47 48 48 49
47 48 49 50 49 49 49 50 50 50 51 51 51 51 50 50 51 50 50 50 50 50 51 51 50 46 42 42 41 40 42 45 45 43 43 45 45 46 45 46 48 48
47 46 48 49 49 49 49 50 51 51 51 52 51 50 50 50 50 49 50 50 50 50 49 50 50 48 43 42 42 40 47 47 42 43 44 43 44 45 46 47 48 49
47 48 48 48 48 49 51 51 51 52 52 52 52 51 50 50 49 48 49 50 51 52 51 50 49 48 44 43 42 41 46 48 44 43 44 44 44 44 47 46 46 45
50 52 52 51 49 50 52 52 52 52 53 53 52 49 47 47 47 48 48 49 50 51 52 53 50 49 47 43 43 41 40 46 45 42 43 44 45 44 45 45 43 43